QPF
0.01 0.01 0.01 0.01 0.01 0.01 0.01 0.02 0.02 0.01 0.01 0.01 0.01 0.00 0.01 0.01 0.01 0.02 0.01 0.01 0.01 0.01 0.01 0.02 0.01 0.01 0.01 0.01 0.01 0.01 0.01 0.01 0.00 0.01 0.02 0.01 0.01 0.01 0.01 0.01 0.01 0.01 0.01 0.01
0.01 0.01 0.01 0.01 0.01 0.01 0.01 0.00 0.00 0.00 0.01 0.01 0.01 0.01 0.00 0.01 0.01 0.02 0.02 0.02 0.02 0.01 0.02 0.02 0.01 0.01 0.01 0.01 0.01 0.01 0.01 0.01 0.01 0.01 0.02 0.01 0.01 0.01 0.01 0.01 0.01 0.01 0.01 0.01
0.01 0.01 0.01 0.01 0.00 0.00 0.01 0.00 0.00 0.00 0.00 0.00 0.00 0.00 0.00 0.00 0.00 0.01 0.01 0.02 0.02 0.02 0.03 0.02 0.01 0.01 0.01 0.01 0.01 0.02 0.02 0.02 0.02 0.01 0.01 0.01 0.01 0.01 0.01 0.00 0.00 0.00 0.01 0.01
0.01 0.01 0.02 0.00 0.00 0.00 0.00 0.00 0.00 0.00 0.00 0.00 0.00 0.00 0.00 0.00 0.00 0.00 0.01 0.01 0.01 0.01 0.02 0.02 0.02 0.02 0.02 0.02 0.02 0.02 0.02 0.02 0.03 0.02 0.01 0.02 0.01 0.01 0.00 0.00 0.01 0.01 0.00 0.00
0.01 0.02 0.02 0.00 0.00 0.00 0.00 0.00 0.00 0.00 0.00 0.00 0.00 0.00 0.00 0.00 0.00 0.00 0.00 0.00 0.00 0.00 0.01 0.01 0.01 0.02 0.03 0.03 0.03 0.03 0.04 0.04 0.03 0.02 0.02 0.02 0.02 0.01 0.01 0.01 0.01 0.01 0.01 0.01
0.01 0.01 0.01 0.00 0.00 0.01 0.00 0.00 0.00 0.00 0.00 0.00 0.00 0.00 0.00 0.00 0.00 0.00 0.00 0.00 0.00 0.00 0.00 0.00 0.01 0.01 0.02 0.03 0.03 0.03 0.03 0.05 0.06 0.05 0.03 0.03 0.03 0.02 0.02 0.02 0.01 0.01 0.01 0.01
0.01 0.01 0.01 0.00 0.00 0.01 0.00 0.00 0.00 0.00 0.00 0.00 0.00 0.00 0.00 0.00 0.00 0.00 0.00 0.00 0.00 0.00 0.00 0.00 0.01 0.01 0.01 0.01 0.01 0.01 0.02 0.03 0.04 0.03 0.03 0.02 0.02 0.02 0.02 0.02 0.02 0.01 0.01 0.01
0.01 0.01 0.00 0.00 0.00 0.01 0.00 0.00 0.00 0.00 0.00 0.00 0.00 0.00 0.00 0.00 0.00 0.00 0.00 0.00 0.00 0.00 0.00 0.00 0.01 0.01 0.00 0.00 0.00 0.00 0.00 0.01 0.01 0.01 0.01 0.02 0.04 0.04 0.04 0.03 0.02 0.02 0.02 0.01
0.02 0.01 0.00 0.00 0.01 0.01 0.01 0.01 0.01 0.00 0.00 0.00 0.00 0.00 0.00 0.00 0.00 0.00 0.00 0.00 0.00 0.00 0.00 0.01 0.01 0.01 0.01 0.01 0.01 0.01 0.01 0.01 0.01 0.01 0.01 0.01 0.01 0.02 0.03 0.03 0.02 0.02 0.02 0.01
0.02 0.01 0.01 0.01 0.01 0.01 0.01 0.01 0.01 0.01 0.01 0.00 0.00 0.00 0.00 0.00 0.00 0.00 0.00 0.00 0.00 0.00 0.00 0.01 0.01 0.01 0.02 0.02 0.02 0.02 0.02 0.02 0.01 0.01 0.01 0.01 0.01 0.01 0.01 0.01 0.01 0.01 0.01 0.01
0.02 0.02 0.02 0.02 0.02 0.02 0.01 0.01 0.01 0.01 0.01 0.00 0.00 0.00 0.00 0.00 0.00 0.00 0.00 0.00 0.00 0.00 0.00 0.01 0.02 0.02 0.02 0.02 0.02 0.02 0.02 0.02 0.01 0.01 0.01 0.01 0.01 0.01 0.01 0.01 0.01 0.01 0.01 0.02
0.02 0.02 0.02 0.02 0.02 0.02 0.01 0.01 0.01 0.01 0.01 0.00 0.00 0.00 0.00 0.00 0.00 0.00 0.00 0.00 0.00 0.00 0.00 0.00 0.01 0.02 0.02 0.02 0.02 0.02 0.02 0.02 0.02 0.02 0.02 0.01 0.01 0.01 0.01 0.01 0.01 0.01 0.01 0.01
0.01 0.02 0.02 0.02 0.02 0.01 0.01 0.01 0.00 0.00 0.00 0.00 0.00 0.00 0.00 0.00 0.00 0.00 0.00 0.00 0.00 0.00 0.00 0.00 0.01 0.01 0.01 0.01 0.01 0.02 0.02 0.03 0.02 0.01 0.02 0.02 0.01 0.01 0.01 0.01 0.01 0.01 0.01 0.01
0.02 0.02 0.03 0.02 0.02 0.02 0.01 0.00 0.00 0.00 0.00 0.00 0.00 0.00 0.00 0.00 0.00 0.00 0.00 0.00 0.00 0.00 0.00 0.00 0.01 0.01 0.01 0.01 0.01 0.01 0.01 0.02 0.03 0.03 0.02 0.02 0.02 0.02 0.02 0.02 0.02 0.02 0.02 0.02
0.03 0.02 0.02 0.03 0.03 0.02 0.01 0.01 0.00 0.00 0.00 0.00 0.00 0.00 0.00 0.00 0.00 0.00 0.00 0.00 0.00 0.00 0.00 0.01 0.01 0.01 0.01 0.01 0.02 0.02 0.02 0.02 0.02 0.03 0.03 0.02 0.03 0.03 0.04 0.04 0.03 0.02 0.01 0.02
0.04 0.03 0.02 0.02 0.03 0.02 0.01 0.00 0.00 0.00 0.00 0.00 0.00 0.00 0.00 0.00 0.00 0.00 0.00 0.00 0.00 0.01 0.01 0.01 0.01 0.01 0.01 0.01 0.02 0.02 0.02 0.02 0.02 0.02 0.02 0.02 0.03 0.03 0.03 0.02 0.01 0.01 0.01 0.01
0.03 0.03 0.04 0.04 0.03 0.02 0.01 0.01 0.00 0.00 0.00 0.00 0.00 0.00 0.00 0.00 0.00 0.00 0.00 0.00 0.00 0.00 0.00 0.00 0.00 0.01 0.01 0.01 0.01 0.01 0.01 0.01 0.02 0.01 0.01 0.01 0.01 0.01 0.01 0.01 0.01 0.01 0.01 0.02
0.01 0.01 0.03 0.04 0.04 0.02 0.01 0.01 0.01 0.01 0.00 0.00 0.00 0.00 0.00 0.00 0.00 0.00 0.00 0.00 0.00 0.00 0.00 0.00 0.00 0.01 0.01 0.01 0.01 0.01 0.01 0.01 0.01 0.01 0.01 0.01 0.01 0.00 0.00 0.00 0.00 0.01 0.01 0.01
0.01 0.01 0.01 0.02 0.02 0.02 0.01 0.01 0.01 0.01 0.01 0.01 0.01 0.01 0.01 0.00 0.00 0.00 0.00 0.00 0.00 0.00 0.00 0.00 0.00 0.01 0.01 0.02 0.01 0.01 0.01 0.01 0.01 0.01 0.01 0.01 0.01 0.01 0.00 0.00 0.00 0.00 0.01 0.01
0.01 0.01 0.01 0.01 0.01 0.01 0.02 0.01 0.01 0.01 0.01 0.01 0.01 0.01 0.01 0.00 0.00 0.00 0.00 0.00 0.00 0.00 0.00 0.00 0.00 0.01 0.01 0.01 0.02 0.02 0.01 0.01 0.01 0.01 0.01 0.01 0.02 0.02 0.01 0.01 0.01 0.01 0.01 0.01
0.01 0.01 0.01 0.01 0.01 0.01 0.02 0.01 0.01 0.01 0.01 0.01 0.01 0.01 0.00 0.00 0.00 0.00 0.00 0.00 0.00 0.00 0.00 0.00 0.01 0.01 0.02 0.02 0.02 0.02 0.02 0.01 0.02 0.02 0.01 0.01 0.02 0.01 0.01 0.01 0.01 0.01 0.01 0.01
0.00 0.00 0.00 0.01 0.01 0.01 0.01 0.01 0.01 0.01 0.01 0.01 0.01 0.00 0.00 0.01 0.00 0.00 0.00 0.00 0.00 0.00 0.00 0.00 0.00 0.01 0.01 0.02 0.01 0.01 0.01 0.01 0.01 0.02 0.02 0.02 0.02 0.02 0.01 0.01 0.01 0.01 0.01 0.02
0.00 0.00 0.00 0.00 0.00 0.01 0.01 0.01 0.01 0.01 0.01 0.01 0.01 0.01 0.01 0.01 0.01 0.00 0.00 0.00 0.00 0.00 0.00 0.00 0.00 0.01 0.01 0.01 0.01 0.01 0.01 0.01 0.01 0.01 0.02 0.02 0.02 0.02 0.02 0.02 0.01 0.01 0.01 0.01
0.00 0.00 0.00 0.00 0.00 0.00 0.00 0.01 0.01 0.01 0.01 0.01 0.01 0.02 0.02 0.02 0.01 0.01 0.00 0.00 0.00 0.00 0.00 0.00 0.00 0.01 0.01 0.01 0.01 0.01 0.01 0.01 0.01 0.01 0.02 0.02 0.02 0.02 0.01 0.01 0.01 0.01 0.01 0.01
0.00 0.00 0.00 0.00 0.00 0.00 0.00 0.00 0.01 0.01 0.00 0.00 0.01 0.01 0.03 0.02 0.01 0.01 0.01 0.01 0.01 0.01 0.00 0.00 0.00 0.00 0.01 0.01 0.01 0.01 0.01 0.01 0.01 0.01 0.01 0.01 0.01 0.01 0.01 0.01 0.01 0.01 0.01 0.01
0.00 0.00 0.00 0.00 0.00 0.00 0.00 0.00 0.00 0.00 0.00 0.00 0.00 0.01 0.02 0.03 0.02 0.01 0.01 0.01 0.01 0.01 0.00 0.00 0.00 0.00 0.00 0.00 0.00 0.00 0.01 0.01 0.01 0.01 0.01 0.01 0.01 0.01 0.01 0.01 0.01 0.01 0.01 0.01
0.00 0.00 0.00 0.00 0.00 0.00 0.00 0.00 0.00 0.00 0.00 0.00 0.00 0.00 0.01 0.03 0.03 0.02 0.01 0.01 0.01 0.01 0.00 0.00 0.00 0.00 0.00 0.00 0.00 0.00 0.00 0.00 0.01 0.01 0.01 0.01 0.01 0.01 0.01 0.01 0.01 0.01 0.01 0.01
MSLP
1017.74 1017.99 1018.23 1018.48 1018.71 1018.91 1019.03 1019.04 1018.93 1018.67 1018.29 1017.81 1017.26 1016.72 1016.22 1015.82 1015.53 1015.37 1015.31 1015.34 1015.42 1015.51 1015.59 1015.63 1015.64 1015.62 1015.58 1015.53 1015.50 1015.50 1015.51 1015.56 1015.62 1015.71 1015.80 1015.92 1016.06 1016.22 1016.41 1016.63 1016.88 1017.14 1017.41 1017.67
1017.86 1018.03 1018.13 1018.18 1018.18 1018.14 1018.05 1017.91 1017.73 1017.50 1017.24 1016.96 1016.68 1016.43 1016.23 1016.08 1015.99 1015.95 1015.95 1015.97 1015.98 1015.99 1015.96 1015.91 1015.84 1015.76 1015.67 1015.58 1015.50 1015.44 1015.39 1015.35 1015.33 1015.33 1015.35 1015.40 1015.49 1015.63 1015.81 1016.05 1016.31 1016.60 1016.90 1017.18
1018.01 1018.06 1018.00 1017.86 1017.65 1017.39 1017.12 1016.86 1016.62 1016.42 1016.28 1016.19 1016.15 1016.17 1016.23 1016.31 1016.40 1016.48 1016.54 1016.56 1016.55 1016.49 1016.41 1016.30 1016.18 1016.06 1015.93 1015.81 1015.69 1015.56 1015.43 1015.30 1015.18 1015.06 1014.98 1014.95 1014.98 1015.07 1015.24 1015.48 1015.76 1016.07 1016.39 1016.68
1018.09 1018.00 1017.78 1017.46 1017.06 1016.63 1016.23 1015.88 1015.62 1015.47 1015.43 1015.51 1015.68 1015.92 1016.20 1016.47 1016.71 1016.91 1017.03 1017.08 1017.07 1017.00 1016.90 1016.77 1016.64 1016.51 1016.37 1016.23 1016.07 1015.88 1015.67 1015.45 1015.21 1014.98 1014.78 1014.65 1014.60 1014.65 1014.79 1015.01 1015.30 1015.61 1015.93 1016.23
1017.99 1017.75 1017.38 1016.90 1016.36 1015.82 1015.34 1014.95 1014.70 1014.61 1014.69 1014.91 1015.26 1015.68 1016.13 1016.56 1016.93 1017.22 1017.41 1017.51 1017.52 1017.48 1017.40 1017.30 1017.19 1017.07 1016.95 1016.80 1016.62 1016.39 1016.11 1015.79 1015.45 1015.11 1014.81 1014.58 1014.45 1014.43 1014.52 1014.72 1014.98 1015.28 1015.58 1015.85
1017.66 1017.26 1016.75 1016.16 1015.53 1014.94 1014.43 1014.05 1013.86 1013.86 1014.05 1014.41 1014.90 1015.46 1016.05 1016.59 1017.07 1017.44 1017.70 1017.85 1017.92 1017.92 1017.89 1017.84 1017.78 1017.71 1017.62 1017.49 1017.30 1017.04 1016.71 1016.32 1015.89 1015.46 1015.07 1014.75 1014.54 1014.46 1014.49 1014.63 1014.85 1015.10 1015.35 1015.56
1017.05 1016.52 1015.90 1015.24 1014.58 1013.99 1013.51 1013.20 1013.10 1013.20 1013.51 1013.99 1014.60 1015.28 1015.96 1016.60 1017.16 1017.60 1017.92 1018.14 1018.27 1018.34 1018.37 1018.39 1018.39 1018.38 1018.33 1018.23 1018.05 1017.78 1017.42 1016.99 1016.50 1016.01 1015.55 1015.17 1014.89 1014.74 1014.71 1014.78 1014.93 1015.11 1015.28 1015.40
1016.20 1015.57 1014.89 1014.20 1013.57 1013.03 1012.64 1012.44 1012.44 1012.67 1013.09 1013.68 1014.39 1015.15 1015.91 1016.62 1017.23 1017.74 1018.12 1018.40 1018.60 1018.73 1018.84 1018.92 1018.99 1019.03 1019.03 1018.96 1018.80 1018.54 1018.18 1017.74 1017.24 1016.71 1016.22 1015.80 1015.47 1015.26 1015.16 1015.15 1015.21 1015.29 1015.36 1015.37
1015.21 1014.51 1013.82 1013.16 1012.59 1012.15 1011.88 1011.80 1011.94 1012.28 1012.81 1013.49 1014.27 1015.10 1015.91 1016.67 1017.34 1017.89 1018.33 1018.67 1018.93 1019.13 1019.30 1019.44 1019.56 1019.64 1019.68 1019.64 1019.51 1019.27 1018.93 1018.51 1018.02 1017.51 1017.02 1016.58 1016.22 1015.96 1015.80 1015.71 1015.67 1015.65 1015.59 1015.49
1014.17 1013.47 1012.81 1012.23 1011.76 1011.44 1011.30 1011.36 1011.61 1012.06 1012.68 1013.43 1014.27 1015.14 1015.99 1016.79 1017.49 1018.09 1018.58 1018.98 1019.29 1019.54 1019.75 1019.93 1020.08 1020.19 1020.25 1020.24 1020.13 1019.93 1019.63 1019.24 1018.80 1018.33 1017.87 1017.45 1017.08 1016.80 1016.58 1016.41 1016.27 1016.13 1015.97 1015.75
1013.19 1012.54 1011.96 1011.49 1011.15 1010.97 1010.96 1011.14 1011.50 1012.04 1012.72 1013.51 1014.38 1015.27 1016.15 1016.97 1017.71 1018.35 1018.89 1019.33 1019.68 1019.98 1020.22 1020.42 1020.58 1020.69 1020.76 1020.75 1020.66 1020.49 1020.23 1019.91 1019.53 1019.12 1018.72 1018.33 1017.98 1017.68 1017.42 1017.18 1016.96 1016.72 1016.45 1016.12
1012.33 1011.77 1011.32 1010.98 1010.79 1010.75 1010.87 1011.15 1011.60 1012.19 1012.90 1013.72 1014.59 1015.49 1016.38 1017.22 1017.98 1018.66 1019.24 1019.73 1020.12 1020.44 1020.70 1020.90 1021.05 1021.15 1021.19 1021.18 1021.10 1020.95 1020.75 1020.48 1020.18 1019.85 1019.51 1019.17 1018.85 1018.55 1018.26 1017.97 1017.67 1017.35 1016.99 1016.59
1011.57 1011.16 1010.85 1010.67 1010.63 1010.73 1010.97 1011.34 1011.85 1012.47 1013.20 1014.01 1014.88 1015.77 1016.66 1017.51 1018.31 1019.02 1019.64 1020.17 1020.59 1020.93 1021.19 1021.38 1021.51 1021.58 1021.59 1021.56 1021.48 1021.35 1021.18 1020.97 1020.74 1020.48 1020.21 1019.93 1019.64 1019.35 1019.04 1018.71 1018.35 1017.96 1017.54 1017.08
1010.87 1010.62 1010.49 1010.49 1010.60 1010.83 1011.18 1011.63 1012.18 1012.82 1013.55 1014.35 1015.20 1016.09 1016.97 1017.84 1018.66 1019.40 1020.07 1020.63 1021.08 1021.43 1021.69 1021.86 1021.95 1021.99 1021.97 1021.91 1021.81 1021.70 1021.55 1021.40 1021.22 1021.03 1020.82 1020.59 1020.33 1020.05 1019.72 1019.36 1018.96 1018.52 1018.04 1017.55
1010.14 1010.07 1010.13 1010.30 1010.58 1010.95 1011.40 1011.93 1012.52 1013.18 1013.91 1014.70 1015.54 1016.41 1017.30 1018.18 1019.02 1019.80 1020.49 1021.08 1021.56 1021.92 1022.18 1022.33 1022.39 1022.39 1022.33 1022.24 1022.13 1022.01 1021.89 1021.77 1021.64 1021.50 1021.33 1021.14 1020.91 1020.63 1020.29 1019.90 1019.46 1018.98 1018.47 1017.93
1009.31 1009.43 1009.68 1010.03 1010.48 1010.99 1011.55 1012.15 1012.80 1013.49 1014.23 1015.02 1015.85 1016.73 1017.62 1018.51 1019.37 1020.17 1020.90 1021.52 1022.01 1022.38 1022.63 1022.76 1022.80 1022.77 1022.68 1022.57 1022.44 1022.32 1022.21 1022.11 1022.01 1021.90 1021.77 1021.59 1021.37 1021.09 1020.74 1020.32 1019.84 1019.33 1018.78 1018.22
1008.36 1008.66 1009.09 1009.63 1010.23 1010.88 1011.56 1012.26 1012.98 1013.72 1014.49 1015.29 1016.14 1017.02 1017.92 1018.83 1019.71 1020.53 1021.27 1021.90 1022.41 1022.78 1023.03 1023.15 1023.17 1023.12 1023.01 1022.88 1022.75 1022.63 1022.52 1022.43 1022.35 1022.25 1022.13 1021.97 1021.74 1021.44 1021.07 1020.62 1020.11 1019.56 1018.97 1018.38
1007.33 1007.79 1008.39 1009.09 1009.85 1010.65 1011.45 1012.25 1013.05 1013.86 1014.68 1015.52 1016.40 1017.30 1018.22 1019.13 1020.02 1020.85 1021.60 1022.23 1022.74 1023.11 1023.35 1023.47 1023.48 1023.42 1023.31 1023.17 1023.04 1022.92 1022.82 1022.73 1022.66 1022.56 1022.44 1022.27 1022.03 1021.71 1021.31 1020.83 1020.29 1019.70 1019.08 1018.44
1006.33 1006.93 1007.67 1008.51 1009.40 1010.33 1011.25 1012.16 1013.06 1013.95 1014.83 1015.73 1016.64 1017.57 1018.51 1019.43 1020.31 1021.14 1021.87 1022.50 1023.00 1023.36 1023.59 1023.71 1023.72 1023.66 1023.55 1023.43 1023.30 1023.19 1023.10 1023.02 1022.94 1022.84 1022.71 1022.51 1022.25 1021.91 1021.48 1020.98 1020.41 1019.78 1019.12 1018.45
1005.48 1006.19 1007.04 1007.99 1009.00 1010.03 1011.06 1012.07 1013.06 1014.03 1014.99 1015.95 1016.90 1017.86 1018.80 1019.72 1020.60 1021.40 1022.12 1022.72 1023.19 1023.54 1023.76 1023.87 1023.89 1023.84 1023.75 1023.64 1023.53 1023.43 1023.35 1023.27 1023.18 1023.07 1022.92 1022.71 1022.43 1022.06 1021.61 1021.09 1020.49 1019.84 1019.16 1018.45
1004.93 1005.72 1006.64 1007.67 1008.75 1009.85 1010.95 1012.04 1013.11 1014.16 1015.19 1016.20 1017.19 1018.17 1019.12 1020.03 1020.89 1021.66 1022.34 1022.90 1023.35 1023.67 1023.88 1023.98 1024.01 1023.97 1023.90 1023.81 1023.72 1023.64 1023.56 1023.48 1023.39 1023.26 1023.09 1022.86 1022.56 1022.18 1021.71 1021.18 1020.57 1019.92 1019.22 1018.50
1004.74 1005.59 1006.55 1007.61 1008.72 1009.87 1011.02 1012.15 1013.28 1014.38 1015.46 1016.51 1017.54 1018.53 1019.48 1020.37 1021.19 1021.93 1022.56 1023.08 1023.48 1023.78 1023.96 1024.06 1024.09 1024.07 1024.02 1023.95 1023.88 1023.80 1023.73 1023.65 1023.54 1023.40 1023.22 1022.97 1022.65 1022.26 1021.79 1021.26 1020.67 1020.02 1019.34 1018.62
1004.95 1005.81 1006.79 1007.85 1008.96 1010.11 1011.27 1012.42 1013.57 1014.70 1015.81 1016.89 1017.94 1018.93 1019.87 1020.74 1021.53 1022.21 1022.80 1023.27 1023.63 1023.88 1024.05 1024.14 1024.17 1024.15 1024.11 1024.06 1024.00 1023.93 1023.86 1023.77 1023.65 1023.50 1023.29 1023.03 1022.70 1022.31 1021.86 1021.34 1020.78 1020.17 1019.51 1018.83
1005.47 1006.35 1007.31 1008.35 1009.43 1010.55 1011.69 1012.84 1013.99 1015.12 1016.25 1017.34 1018.38 1019.37 1020.29 1021.13 1021.88 1022.52 1023.06 1023.48 1023.79 1024.02 1024.16 1024.23 1024.26 1024.24 1024.21 1024.16 1024.11 1024.04 1023.96 1023.85 1023.72 1023.55 1023.33 1023.05 1022.72 1022.34 1021.91 1021.43 1020.90 1020.34 1019.74 1019.10
1006.19 1007.07 1008.01 1009.00 1010.04 1011.12 1012.22 1013.34 1014.47 1015.60 1016.72 1017.81 1018.85 1019.83 1020.73 1021.54 1022.24 1022.84 1023.33 1023.71 1023.99 1024.18 1024.29 1024.35 1024.37 1024.35 1024.32 1024.27 1024.21 1024.13 1024.04 1023.92 1023.77 1023.58 1023.34 1023.06 1022.73 1022.36 1021.95 1021.51 1021.03 1020.52 1019.98 1019.40
1006.95 1007.84 1008.75 1009.71 1010.70 1011.73 1012.79 1013.88 1014.99 1016.10 1017.20 1018.27 1019.30 1020.26 1021.14 1021.92 1022.60 1023.16 1023.61 1023.95 1024.20 1024.36 1024.45 1024.50 1024.50 1024.48 1024.44 1024.39 1024.32 1024.23 1024.12 1023.99 1023.81 1023.61 1023.36 1023.07 1022.75 1022.39 1022.00 1021.59 1021.16 1020.71 1020.22 1019.71
1007.64 1008.52 1009.42 1010.35 1011.31 1012.30 1013.33 1014.38 1015.46 1016.56 1017.64 1018.70 1019.71 1020.66 1021.51 1022.27 1022.92 1023.45 1023.87 1024.18 1024.40 1024.54 1024.62 1024.65 1024.65 1024.62 1024.57 1024.51 1024.44 1024.34 1024.22 1024.07 1023.88 1023.66 1023.40 1023.11 1022.78 1022.44 1022.07 1021.69 1021.29 1020.87 1020.44 1019.97
Thickness
5689 5698 5699 5698 5701 5700 5693 5687 5680 5689 5695 5707 5715 5719 5722 5724 5724 5723 5722 5722 5721 5720 5719 5719 5718 5717 5717 5716 5715 5714 5711 5709 5708 5707 5706 5705 5703 5701 5700 5698 5697 5695 5692 5690
5687 5696 5696 5694 5700 5701 5699 5698 5694 5696 5700 5718 5722 5721 5720 5721 5722 5720 5720 5722 5721 5720 5719 5718 5718 5717 5716 5715 5714 5712 5710 5708 5707 5705 5703 5702 5701 5699 5697 5695 5693 5691 5689 5687
5669 5686 5686 5679 5697 5700 5701 5704 5702 5695 5705 5717 5715 5717 5719 5721 5721 5721 5722 5722 5721 5720 5720 5719 5720 5719 5716 5715 5713 5710 5708 5706 5704 5703 5701 5699 5698 5696 5693 5692 5690 5687 5685 5683
5663 5670 5659 5686 5710 5711 5705 5707 5710 5711 5714 5718 5720 5723 5724 5725 5723 5722 5723 5722 5721 5721 5720 5720 5720 5719 5717 5714 5711 5708 5705 5703 5702 5700 5698 5697 5694 5692 5690 5688 5686 5684 5681 5679
5654 5654 5666 5691 5708 5709 5701 5699 5713 5712 5715 5718 5721 5717 5716 5724 5726 5726 5725 5724 5723 5723 5722 5720 5719 5717 5714 5711 5708 5706 5704 5702 5701 5699 5696 5694 5691 5689 5687 5685 5682 5680 5678 5675
5653 5653 5654 5685 5710 5716 5706 5691 5712 5715 5714 5715 5713 5697 5705 5722 5725 5725 5725 5724 5722 5721 5719 5717 5716 5715 5711 5708 5706 5704 5704 5702 5700 5698 5695 5692 5690 5687 5685 5682 5680 5677 5674 5672
5651 5651 5665 5695 5709 5709 5683 5690 5713 5715 5715 5714 5709 5710 5717 5723 5723 5723 5723 5722 5721 5719 5716 5715 5714 5712 5708 5706 5705 5706 5704 5701 5697 5695 5693 5691 5688 5685 5682 5679 5675 5672 5670 5667
5647 5647 5661 5698 5700 5694 5696 5710 5713 5713 5714 5714 5714 5717 5718 5719 5718 5718 5717 5717 5716 5714 5712 5712 5711 5708 5705 5704 5706 5704 5700 5696 5694 5692 5690 5687 5683 5680 5678 5674 5670 5666 5664 5661
5655 5662 5681 5691 5696 5702 5705 5704 5708 5709 5711 5713 5711 5711 5712 5712 5713 5713 5713 5712 5712 5710 5707 5707 5707 5706 5703 5702 5701 5699 5695 5692 5689 5687 5685 5683 5679 5676 5672 5669 5666 5663 5659 5657
5655 5666 5677 5685 5692 5697 5700 5701 5705 5707 5708 5709 5706 5706 5706 5705 5706 5707 5707 5707 5707 5705 5702 5701 5701 5702 5701 5700 5697 5694 5690 5686 5684 5681 5678 5676 5674 5672 5668 5665 5662 5659 5655 5652
5649 5660 5669 5679 5685 5690 5695 5699 5701 5702 5704 5704 5703 5701 5701 5700 5700 5701 5701 5701 5701 5699 5698 5697 5697 5696 5695 5694 5692 5687 5684 5681 5678 5676 5674 5671 5669 5667 5665 5663 5661 5657 5654 5651
5644 5656 5657 5667 5679 5685 5687 5689 5693 5694 5694 5697 5699 5696 5696 5694 5695 5695 5695 5695 5694 5694 5693 5692 5691 5690 5689 5688 5686 5682 5678 5675 5673 5670 5668 5665 5662 5658 5658 5657 5656 5654 5652 5648
5654 5660 5662 5668 5674 5678 5680 5684 5687 5688 5688 5687 5690 5691 5690 5688 5688 5688 5688 5688 5688 5688 5687 5687 5685 5684 5683 5682 5680 5677 5673 5670 5667 5664 5662 5659 5656 5652 5648 5647 5647 5645 5644 5642
5653 5655 5654 5660 5663 5670 5674 5677 5680 5680 5681 5682 5682 5683 5682 5681 5681 5680 5681 5681 5682 5681 5680 5679 5678 5677 5677 5676 5674 5671 5668 5665 5662 5658 5656 5653 5650 5647 5644 5640 5636 5635 5635 5634
5645 5649 5649 5653 5657 5660 5664 5666 5667 5667 5669 5670 5672 5673 5673 5673 5672 5673 5675 5675 5673 5672 5671 5671 5670 5669 5669 5668 5666 5663 5660 5657 5655 5652 5649 5646 5643 5640 5636 5634 5631 5628 5626 5624
5635 5638 5641 5643 5646 5649 5652 5654 5654 5656 5659 5660 5661 5663 5665 5666 5666 5666 5666 5666 5664 5662 5662 5662 5661 5661 5661 5660 5657 5654 5652 5651 5648 5644 5640 5637 5635 5632 5629 5626 5623 5620 5618 5616
5623 5625 5629 5632 5636 5639 5642 5644 5646 5648 5650 5651 5653 5655 5656 5656 5655 5655 5655 5656 5657 5656 5655 5654 5653 5653 5653 5651 5648 5645 5643 5641 5640 5636 5632 5630 5627 5624 5622 5619 5616 5613 5611 5609
5618 5621 5624 5626 5628 5630 5632 5635 5638 5640 5641 5643 5645 5646 5645 5644 5643 5644 5645 5646 5646 5646 5646 5646 5646 5645 5644 5642 5640 5637 5634 5632 5630 5627 5624 5621 5619 5617 5614 5611 5608 5605 5602 5600
5610 5613 5615 5618 5621 5622 5624 5626 5627 5630 5632 5634 5635 5634 5635 5635 5635 5636 5636 5636 5635 5634 5635 5636 5637 5636 5634 5632 5631 5628 5625 5623 5620 5617 5615 5613 5610 5607 5604 5602 5599 5596 5594 5591
5600 5604 5606 5608 5611 5613 5614 5616 5618 5619 5621 5623 5623 5623 5623 5624 5625 5625 5625 5625 5625 5627 5627 5627 5627 5625 5624 5622 5621 5618 5616 5613 5610 5607 5605 5603 5600 5597 5595 5592 5590 5587 5584 5581
5590 5593 5596 5597 5599 5601 5604 5605 5606 5607 5609 5611 5611 5611 5612 5613 5615 5616 5615 5613 5615 5617 5617 5618 5616 5615 5614 5613 5612 5608 5605 5603 5600 5597 5595 5592 5590 5587 5584 5582 5579 5576 5574 5571
5579 5582 5584 5585 5587 5588 5591 5593 5595 5596 5597 5599 5600 5601 5601 5601 5602 5603 5604 5605 5606 5607 5607 5606 5606 5606 5605 5603 5601 5598 5595 5593 5590 5587 5584 5581 5579 5576 5573 5571 5568 5565 5563 5560
5568 5570 5572 5574 5575 5575 5577 5580 5582 5584 5586 5587 5588 5589 5589 5589 5590 5591 5591 5593 5595 5597 5596 5595 5596 5596 5595 5592 5590 5587 5585 5582 5580 5577 5574 5572 5569 5566 5563 5560 5557 5555 5552 5549
5556 5558 5560 5562 5563 5563 5564 5566 5569 5571 5573 5574 5576 5577 5577 5577 5577 5579 5581 5583 5585 5585 5585 5585 5585 5585 5583 5580 5578 5576 5574 5571 5569 5566 5564 5561 5558 5555 5552 5549 5546 5544 5541 5538
5545 5546 5548 5549 5550 5551 5552 5554 5555 5557 5559 5560 5562 5563 5564 5566 5567 5567 5569 5570 5571 5572 5572 5573 5574 5573 5571 5568 5566 5564 5562 5560 5558 5555 5553 5550 5547 5544 5541 5538 5536 5533 5530 5527
5535 5536 5537 5538 5540 5541 5541 5542 5543 5544 5545 5547 5548 5550 5552 5553 5554 5555 5556 5557 5558 5558 5558 5559 5559 5559 5558 5557 5555 5553 5551 5549 5547 5544 5542 5539 5536 5533 5530 5528 5525 5522 5519 5516
5523 5525 5526 5527 5528 5530 5531 5532 5532 5533 5534 5535 5536 5538 5540 5541 5542 5543 5544 5544 5544 5544 5545 5545 5546 5546 5545 5544 5543 5541 5539 5537 5535 5533 5530 5527 5524 5522 5519 5517 5514 5511 5508 5505